Theta_e
355 355 353 345 340 343 340 342 341 341 342 344 345 345 345 341 339 337 334 334 333 334 341 344 343 343 344 345 342 339 334 333 332 332 332 331 331 330 331 331 331 328 325 321 317 328 338 337 336 338 340 340 340 341 340 340 340 339 339 340 339 338 336 335 337 338 338 337 336 335 335 335 335 334 333 332 332 332 333 336 335 334 336 336 336
355 354 353 344 340 342 340 342 340 341 342 344 345 345 345 342 340 337 335 334 333 336 341 342 341 342 343 344 339 337 335 332 331 331 331 331 331 330 331 332 332 328 323 319 322 332 332 330 335 337 337 337 339 340 339 338 338 339 340 339 339 338 336 336 338 339 338 336 335 334 334 334 335 336 335 333 330 328 330 333 333 333 334 334 336
353 354 353 344 340 342 340 341 339 341 341 344 345 345 345 342 340 337 336 334 334 338 341 340 339 340 341 341 336 333 332 331 330 331 330 330 331 331 333 336 334 327 321 319 324 328 326 328 331 332 333 334 334 335 335 335 336 337 339 338 338 337 336 337 339 339 337 337 336 336 334 334 335 336 337 336 334 331 330 330 330 332 331 330 331
353 354 352 344 340 341 341 340 340 341 343 345 345 346 345 342 340 337 336 334 336 339 339 339 339 340 341 338 331 328 329 330 329 329 329 330 331 330 335 337 330 320 318 320 323 324 325 327 328 330 330 330 330 330 331 330 331 332 333 333 333 333 332 333 334 334 335 337 337 338 337 336 335 335 336 336 336 335 333 332 332 333 333 332 331
354 354 352 345 341 342 341 341 340 342 344 345 346 346 344 342 340 337 336 335 338 339 339 339 340 341 341 335 327 325 327 329 328 328 330 330 329 330 334 331 321 317 318 321 324 326 328 329 330 330 330 330 330 330 329 328 328 327 327 328 329 329 328 329 329 331 335 337 337 338 337 337 337 335 335 336 336 336 335 335 335 335 336 336 335
354 353 351 348 348 344 340 342 341 343 344 346 347 345 344 342 339 337 336 337 339 338 338 339 341 341 340 333 324 324 326 328 328 329 330 327 325 328 329 322 317 319 321 324 327 331 333 333 333 333 333 334 334 333 332 331 330 328 328 327 327 327 328 329 330 334 336 337 337 338 337 337 337 335 335 336 336 336 335 335 335 335 335 336 336
354 352 350 349 351 346 340 343 343 344 345 345 346 345 343 340 339 337 337 338 337 337 339 340 342 342 340 332 323 325 328 329 328 328 326 322 322 325 323 318 318 321 324 327 332 337 337 337 337 337 337 337 337 337 336 335 334 331 330 329 328 328 329 330 332 336 337 336 336 337 337 337 337 337 335 335 335 335 335 334 334 334 335 336 336
352 351 349 349 352 346 341 344 343 344 344 345 345 343 342 340 339 338 337 336 335 337 339 341 342 341 339 332 324 326 329 328 327 324 320 319 321 322 319 318 321 324 326 331 337 340 340 339 338 339 339 338 337 337 338 338 337 335 333 331 329 329 330 331 334 337 336 336 336 336 336 336 337 337 335 335 334 334 335 335 334 334 335 335 336
352 351 348 349 351 344 342 344 343 344 344 345 344 343 341 340 339 338 337 336 337 338 340 341 341 340 338 331 324 326 329 327 323 319 317 318 321 321 320 321 323 327 331 335 339 341 341 340 339 338 337 337 337 337 338 338 339 338 336 334 331 330 330 332 336 338 337 336 335 336 336 336 336 337 336 335 335 334 334 334 333 334 334 334 335
352 351 348 351 350 343 342 344 344 345 344 344 344 343 341 340 340 338 337 338 339 340 341 341 341 340 336 329 325 327 329 325 319 316 318 320 322 322 322 323 326 333 337 338 340 341 341 340 339 338 336 336 336 337 337 337 338 337 336 336 334 331 331 334 337 338 337 336 336 336 337 336 336 337 335 335 334 332 333 332 332 333 333 332 333
352 351 349 351 348 342 343 344 346 346 345 345 344 343 342 341 340 338 338 340 341 341 342 341 342 340 334 328 326 328 328 322 317 317 320 323 323 322 322 324 330 337 339 339 339 340 338 338 338 337 336 336 336 337 337 337 337 336 336 335 334 332 334 337 338 337 337 337 337 338 337 336 337 336 334 333 332 331 332 332 332 332 332 331 331
353 352 350 351 346 340 343 346 347 347 347 346 345 344 344 343 341 340 340 341 341 342 342 342 342 338 330 326 327 328 326 319 316 320 324 325 324 322 323 327 333 338 337 337 336 336 335 336 337 336 336 336 337 337 337 338 336 336 335 335 334 332 335 338 337 337 337 337 338 338 337 337 336 333 332 333 332 332 332 332 332 331 330 330 330
353 352 350 351 346 342 345 346 347 348 348 347 347 346 344 343 343 342 341 342 342 342 341 341 341 337 328 325 327 327 322 316 318 322 326 326 325 325 325 328 334 336 335 334 333 334 335 336 336 335 335 336 337 337 337 337 337 337 336 336 335 334 336 338 337 337 337 338 338 338 338 338 335 331 331 333 332 333 332 331 331 330 330 329 329
352 351 350 350 347 346 346 345 348 348 347 347 346 346 345 345 344 344 344 343 342 341 341 340 339 335 330 328 328 324 318 316 321 324 327 329 328 329 329 331 335 335 333 332 332 334 335 334 333 332 333 335 336 336 336 336 337 337 337 337 337 336 337 338 337 337 338 337 338 338 339 338 334 331 331 332 333 333 331 331 331 329 327 325 325
350 350 349 349 348 347 347 346 348 348 349 348 347 346 346 345 345 346 344 342 341 339 340 339 335 331 330 328 324 320 317 319 323 326 329 331 331 332 333 334 333 332 331 330 332 332 331 330 328 328 329 330 333 334 335 336 336 336 337 337 337 338 340 339 336 337 338 337 338 339 339 336 333 333 331 330 331 332 330 330 329 326 324 325 325
349 348 348 348 347 347 346 346 346 347 348 347 347 346 346 346 344 344 342 340 339 336 336 335 331 326 325 322 322 321 319 320 324 328 330 331 332 333 333 332 331 329 328 329 329 328 327 326 324 323 323 324 326 330 334 335 335 335 336 336 337 337 339 340 337 338 338 337 338 339 339 336 333 334 332 328 329 331 330 326 323 324 327 328 327
349 348 348 347 346 345 345 345 345 346 346 346 346 345 346 345 343 343 340 339 337 333 329 327 325 321 319 318 322 324 322 322 325 328 331 332 333 333 332 330 329 327 326 326 325 325 323 322 321 320 319 319 321 326 331 334 335 335 335 336 336 336 338 341 340 338 336 337 338 340 340 337 334 334 331 328 328 330 329 324 325 327 327 325 323
349 348 348 347 346 344 344 344 343 344 344 345 345 344 344 343 342 341 338 336 333 328 324 320 317 317 318 318 320 324 324 324 326 329 331 332 332 332 331 330 329 325 324 323 321 321 320 319 319 319 319 319 319 322 326 329 331 333 335 335 336 336 337 341 342 337 337 338 338 341 339 335 335 333 330 329 329 329 327 326 330 329 324 322 322
349 348 347 346 346 344 344 344 342 343 343 344 346 344 341 340 339 337 334 330 326 322 318 315 315 317 320 321 321 323 325 325 327 329 330 331 331 331 331 331 327 324 322 321 320 320 320 320 320 320 320 320 320 321 323 324 326 328 330 333 336 336 336 342 342 339 339 338 339 340 336 334 335 333 329 328 329 329 326 326 329 327 323 322 322
348 348 346 346 345 344 345 344 343 343 344 343 345 345 341 337 335 334 330 326 322 318 316 314 316 319 322 322 320 321 326 327 327 329 330 330 330 331 331 330 326 323 322 321 322 323 323 322 321 321 320 321 322 323 323 324 325 325 326 329 332 334 338 342 340 339 340 338 340 339 334 335 336 334 332 330 331 330 327 326 326 325 324 322 323
348 348 346 346 344 345 345 344 343 343 344 344 344 345 342 338 335 332 328 325 320 317 319 316 317 321 322 321 321 327 332 331 333 333 330 330 330 331 331 328 325 325 325 325 326 325 325 323 322 322 322 323 323 324 325 325 326 326 327 326 327 334 341 342 338 339 340 338 341 336 333 336 336 336 335 335 332 328 327 326 326 327 324 322 324
343 341 341 344 344 345 345 343 344 344 344 344 345 344 341 340 339 336 332 327 320 317 317 316 319 325 326 328 333 338 340 338 339 336 333 333 331 331 330 327 327 328 328 328 327 326 325 324 323 322 322 323 325 328 330 329 328 327 327 327 330 337 340 340 338 339 340 340 341 334 333 337 337 338 337 336 332 328 326 326 329 327 322 322 325
340 337 339 342 342 343 344 344 344 344 345 345 346 344 340 340 341 341 338 333 328 323 318 319 325 329 333 336 341 343 342 342 342 339 338 335 331 331 330 328 329 330 329 329 327 326 325 325 323 322 322 324 328 331 331 333 332 330 329 330 335 337 336 339 338 339 340 341 340 332 333 337 337 339 338 337 333 328 327 329 331 324 319 323 326
339 340 342 342 341 341 342 344 345 345 346 346 345 344 343 342 342 342 340 339 339 336 331 330 327 328 337 340 341 342 344 344 342 341 340 336 332 331 330 329 330 331 331 330 328 326 326 326 323 323 326 328 330 330 331 333 333 332 331 331 333 334 335 337 338 339 340 342 340 332 333 338 337 338 338 337 335 330 329 332 330 322 319 324 327
340 342 342 341 342 341 340 342 345 346 345 345 344 344 343 343 343 341 340 340 341 342 341 338 331 332 339 339 339 339 343 343 340 340 339 337 336 333 332 333 334 333 333 335 334 330 330 331 328 327 330 331 330 330 332 333 331 330 330 330 331 334 335 336 338 340 340 343 340 332 333 337 337 338 337 337 336 333 333 332 328 321 320 325 328
341 340 340 340 341 342 341 340 342 344 345 344 344 344 343 343 343 341 340 340 341 343 343 342 338 337 337 336 334 333 338 339 336 338 338 337 338 336 335 336 337 337 335 337 338 335 334 335 332 331 331 330 329 330 332 331 330 328 328 330 331 333 334 334 339 340 341 344 339 331 334 337 337 338 337 336 335 334 334 331 326 321 321 326 328
338 336 336 338 338 340 341 340 339 341 343 343 344 345 343 343 343 342 342 341 342 343 342 341 342 340 338 334 327 327 334 336 336 338 337 336 337 336 336 336 337 336 336 337 337 337 335 335 333 330 330 329 329 330 331 331 330 328 328 329 331 332 333 335 339 339 340 343 337 331 333 337 337 337 336 336 335 334 334 330 324 321 323 327 328
334 332 333 336 339 339 340 341 339 338 340 342 345 345 343 343 343 343 343 343 343 342 341 341 342 342 341 337 328 327 332 333 335 337 336 336 335 335 335 336 335 335 337 336 336 336 335 335 332 330 330 329 329 330 332 331 329 329 329 330 331 333 334 335 337 339 339 342 338 332 333 336 337 337 336 336 335 335 334 329 324 322 324 328 328
333 333 332 335 340 340 338 339 338 339 339 339 342 344 344 344 344 344 343 343 343 342 342 342 342 342 342 341 337 333 331 331 331 331 333 334 335 337 336 335 334 335 336 335 336 336 335 334 330 329 330 328 330 331 332 331 329 330 330 330 332 333 335 337 337 339 338 341 341 335 333 336 337 337 335 335 335 334 334 330 325 323 325 328 328
334 334 334 336 340 340 339 339 337 338 339 338 339 343 344 344 344 344 344 344 343 343 343 343 342 341 342 342 342 341 338 335 332 328 328 331 335 337 336 335 335 336 336 334 336 336 335 332 329 330 329 329 330 331 332 330 330 331 331 331 333 334 335 336 337 339 339 340 342 337 334 335 337 337 335 335 335 334 334 331 326 324 326 328 328
336 336 336 336 339 341 340 340 339 338 339 339 338 340 343 344 344 344 345 344 343 344 343 343 342 341 343 343 342 343 342 341 339 335 331 331 333 332 331 334 335 335 333 333 336 335 334 332 330 330 328 329 330 332 333 330 330 331 331 332 333 334 335 336 338 339 341 340 341 340 337 335 336 337 336 335 335 334 334 332 328 325 326 328 328
336 336 337 335 337 340 341 341 341 341 340 339 339 339 340 341 343 344 344 344 343 344 344 343 342 342 343 343 343 343 342 343 340 339 340 335 330 327 328 331 331 332 330 333 335 331 331 329 324 323 323 328 331 332 333 329 329 330 331 332 332 334 335 337 338 340 342 341 340 341 340 337 336 338 337 335 335 334 334 332 329 327 327 328 328
336 336 338 336 336 339 341 341 339 340 341 340 339 339 338 337 340 344 343 343 344 344 343 343 342 342 342 343 343 343 343 342 337 335 340 340 334 331 332 330 328 329 327 328 328 325 327 327 321 320 321 326 332 333 333 330 328 330 330 331 333 334 335 337 339 341 342 342 341 340 340 339 338 338 337 336 335 334 334 333 330 329 328 328 329
336 337 337 337 337 337 338 340 338 336 337 339 338 338 339 336 338 344 343 343 344 343 343 343 342 342 342 343 342 342 342 343 339 333 334 339 341 340 338 333 330 328 321 317 319 322 327 328 325 325 324 325 331 333 333 330 328 329 330 330 333 334 334 337 340 341 342 343 342 340 340 340 339 338 337 336 335 334 334 333 331 330 329 329 329
332 335 336 335 335 337 337 339 338 335 334 335 336 336 338 337 335 340 343 344 344 343 343 343 342 341 342 342 342 342 341 342 341 337 336 338 342 344 341 337 334 328 319 315 318 325 328 327 327 326 326 325 329 334 334 332 330 329 331 331 332 334 335 338 340 341 342 343 342 339 339 340 340 339 338 337 336 335 334 333 331 330 330 330 330
325 329 331 330 333 338 339 338 339 337 335 336 335 335 336 337 337 336 338 342 344 344 344 343 343 342 341 342 342 341 342 342 340 339 340 339 338 340 339 340 340 334 325 319 318 326 328 327 328 326 326 326 328 334 334 334 332 331 332 332 334 336 336 339 341 341 341 342 342 341 339 339 339 339 338 337 337 335 334 333 331 330 330 330 330
321 322 324 327 332 338 339 339 339 338 337 337 337 336 336 337 339 336 334 339 343 344 344 344 343 343 342 342 342 341 341 342 341 339 340 340 337 335 336 338 339 337 333 325 320 326 328 328 328 325 325 326 328 333 335 335 333 332 333 333 336 338 337 340 342 341 341 342 342 342 341 340 339 339 338 338 338 336 334 334 331 329 330 329 329
318 318 320 322 327 333 338 339 339 340 339 338 339 339 338 338 337 335 335 339 343 344 345 345 344 343 343 342 342 341 341 341 341 339 337 338 337 333 333 332 331 335 338 332 324 326 329 328 328 325 324 325 327 333 336 334 334 334 334 335 339 340 340 341 341 342 342 342 343 342 342 341 339 339 340 339 338 337 335 334 332 329 329 329 329
317 317 318 319 321 326 335 339 339 341 341 341 340 340 339 338 335 332 336 341 343 343 344 345 345 344 343 342 342 341 341 340 340 340 337 334 333 331 330 326 325 333 340 335 328 330 330 325 327 327 324 325 329 333 336 335 335 336 336 338 341 342 342 342 342 343 342 342 343 342 342 342 340 340 340 338 338 337 336 335 333 330 329 329 329
318 317 317 320 319 318 326 337 340 340 342 342 341 340 339 337 333 331 335 340 342 344 344 345 345 344 343 342 342 342 341 340 340 341 340 337 335 333 328 322 322 331 339 336 329 331 330 323 325 327 324 326 329 331 335 336 337 337 338 339 342 343 343 343 343 343 342 342 342 342 342 341 340 340 340 339 338 338 337 336 335 332 329 329 329
319 317 316 317 319 316 318 329 338 341 341 340 337 335 335 335 334 335 338 341 342 344 344 345 345 344 343 342 342 342 341 341 339 340 341 340 341 339 332 323 323 330 338 337 331 332 331 324 325 328 326 327 328 331 335 336 337 337 337 339 340 342 343 344 344 343 341 341 341 342 342 341 341 340 340 340 339 338 337 336 336 333 331 330 330
320 319 317 315 316 316 316 320 331 340 342 341 336 331 334 339 341 342 343 343 343 343 343 343 343 343 343 342 342 342 341 341 339 339 340 341 342 342 337 328 324 327 334 337 335 335 334 328 328 329 326 327 329 333 335 335 335 335 336 338 338 339 341 343 344 342 340 339 340 343 342 342 341 340 339 340 339 339 337 337 336 334 332 331 331
319 319 319 317 316 316 315 315 322 333 339 342 341 339 341 343 343 343 343 343 343 343 343 343 343 342 343 342 342 342 342 341 340 338 339 340 341 342 341 333 324 321 326 334 338 336 336 333 329 327 325 326 332 335 334 333 333 334 335 333 334 336 339 342 343 342 341 339 340 342 342 342 341 340 340 340 339 339 338 337 336 335 334 332 331
319 318 318 319 318 318 317 315 316 325 334 339 342 343 344 344 344 344 343 343 343 343 343 343 343 342 342 342 342 341 341 341 340 339 338 339 339 340 342 338 331 324 323 330 336 334 333 333 328 326 328 328 332 336 335 333 333 335 332 331 332 330 332 338 340 341 341 339 340 340 341 342 342 341 340 340 339 339 339 337 337 336 335 333 332
318 318 317 318 319 319 319 318 316 319 326 334 339 342 344 343 342 343 343 344 343 343 343 343 343 343 342 342 342 342 341 341 341 340 339 339 339 339 341 340 336 333 330 329 334 333 330 330 327 327 328 326 332 337 336 335 334 333 331 331 333 327 327 333 335 340 341 340 340 340 340 341 342 341 340 340 340 339 338 337 337 336 335 334 333
317 317 317 317 318 318 319 319 318 318 321 328 335 339 343 343 340 341 344 344 343 342 342 343 343 342 342 342 342 342 341 341 341 341 340 339 339 339 340 340 337 338 337 330 331 333 332 330 327 328 327 325 332 336 337 337 336 335 333 333 334 331 332 334 331 335 341 341 340 339 340 341 342 341 340 340 340 339 339 338 337 337 335 334 333
316 316 316 317 317 318 318 319 319 319 320 324 331 337 340 342 341 341 342 342 342 342 343 343 343 342 342 342 342 342 342 342 341 340 340 340 339 338 339 341 339 339 339 334 331 332 333 332 329 329 326 325 330 334 337 339 338 338 336 335 336 334 335 335 331 331 337 340 340 339 339 339 341 341 340 341 340 340 339 338 338 337 336 334 333
315 316 316 316 317 317 318 319 319 320 320 322 327 333 338 341 341 341 341 341 341 342 343 343 343 342 342 342 342 343 342 342 342 341 341 340 340 339 338 340 340 339 339 336 333 332 332 332 333 333 329 327 330 331 336 338 337 338 337 336 337 335 335 335 334 333 332 334 338 339 339 337 339 339 340 341 341 341 340 339 339 337 336 334 333
315 315 316 316 316 317 318 319 319 320 320 320 322 328 334 338 340 340 340 340 340 341 342 341 342 342 341 342 342 343 343 343 343 342 341 340 340 340 339 338 339 340 339 337 335 334 333 331 335 338 335 334 333 331 336 337 334 336 338 338 338 337 337 336 336 335 333 331 333 338 340 338 338 338 338 339 340 340 340 340 339 338 336 334 334
315 315 315 315 316 316 317 318 319 319 320 320 320 324 328 334 338 339 339 339 339 340 339 339 342 341 340 342 342 342 343 343 344 343 342 341 340 340 339 338 339 339 339 337 335 335 335 333 335 339 338 339 337 332 336 337 334 337 338 337 339 338 337 337 337 337 335 333 331 333 340 340 339 339 338 337 338 339 340 340 339 338 336 334 334
315 315 315 315 315 316 317 318 318 319 319 320 321 322 324 330 336 338 339 338 338 339 337 338 343 343 341 342 341 342 343 343 344 344 343 342 341 341 339 338 338 338 339 338 337 336 337 335 336 338 338 339 338 334 336 337 336 339 339 337 338 338 336 336 338 338 337 335 333 331 337 340 340 340 338 337 337 338 339 339 339 338 336 334 334
Wind_Speed
14 18 21 31 31 30 30 28 28 28 30 32 35 36 37 37 37 37 37 35 33 33 32 33 33 33 31 29 28 30 31 31 31 30 29 27 26 24 21 19 18 17 17 17 17 17 17 17 18 18 18 18 18 17 16 16 16 16 16 16 15 15 16 16 16 15 15 16 16 16 16 16 16 15 14 14 13 12 12 10 9 10 13 14 12
16 18 21 30 30 30 30 29 29 29 31 33 35 37 38 38 38 38 37 35 34 34 34 34 34 34 31 29 30 31 31 32 31 30 28 26 24 22 20 19 18 18 18 18 17 17 18 18 18 18 19 19 17 16 16 16 16 16 16 15 15 14 15 15 15 14 14 15 16 17 17 17 16 15 14 14 14 13 12 10 11 12 13 13 12
18 17 20 29 30 30 30 29 29 29 32 34 36 37 38 39 39 38 37 35 34 35 34 34 34 34 31 30 31 32 32 32 31 29 27 25 23 21 20 18 18 18 18 18 18 19 19 19 19 20 20 20 18 17 17 16 16 15 15 15 14 13 13 13 13 13 14 15 15 16 17 18 16 14 14 13 14 14 13 12 12 13 13 12 11
21 19 21 29 30 30 30 29 30 30 33 34 37 38 39 39 39 38 37 35 35 35 35 35 35 33 30 31 33 33 33 32 31 29 26 24 22 21 20 19 18 19 19 19 20 21 21 20 21 21 21 21 20 18 17 17 16 15 15 15 14 13 13 13 13 13 15 16 13 12 14 16 16 15 13 13 13 12 13 12 12 12 12 11 11
21 21 24 30 30 30 30 30 30 31 34 35 37 39 39 39 39 38 37 37 36 36 35 35 35 32 30 33 34 33 33 32 30 28 26 23 22 21 20 19 19 19 20 21 23 22 21 21 21 21 22 21 20 19 18 17 16 16 15 15 14 14 14 14 13 14 16 17 13 11 13 14 15 14 13 12 12 12 12 11 11 11 10 10 10
21 22 25 28 27 30 32 31 31 32 34 36 38 39 40 40 39 39 38 38 37 36 36 35 34 32 31 34 34 33 33 31 29 27 25 23 22 21 20 20 20 20 21 23 24 22 20 20 20 20 20 20 20 19 18 18 17 16 15 15 14 14 14 14 14 15 15 15 13 11 12 13 14 14 13 12 12 11 11 11 11 10 9 9 9
20 21 25 27 25 30 34 32 33 33 35 37 39 40 41 40 39 39 39 38 37 37 35 34 33 30 31 34 35 34 32 30 28 26 24 23 22 22 21 21 22 22 24 24 23 20 19 18 18 18 17 18 18 17 16 17 17 16 16 15 14 14 13 13 14 15 14 12 11 12 12 13 13 13 12 12 11 11 11 11 10 10 9 8 8
19 20 24 25 23 32 35 34 35 35 36 37 39 40 41 40 39 38 38 38 37 36 34 33 31 30 31 34 35 33 31 29 27 26 25 24 23 23 22 23 24 24 25 23 21 19 17 17 17 16 16 16 16 15 14 14 14 15 15 15 14 13 12 12 13 15 14 11 11 12 12 13 13 13 12 11 11 11 10 10 10 10 9 9 9
19 20 24 23 24 33 36 36 36 36 37 38 39 39 40 39 39 38 38 37 36 35 33 32 30 30 32 34 34 33 30 29 27 26 26 25 24 24 23 24 26 25 23 22 20 18 17 16 16 16 15 16 15 14 14 13 12 12 13 13 13 12 12 12 13 13 12 12 12 12 12 13 13 13 12 11 11 11 10 10 11 11 10 10 10
18 20 23 21 25 35 37 36 37 37 38 38 39 39 40 39 38 38 37 36 34 33 31 30 29 29 32 34 34 32 30 28 28 27 26 25 24 24 24 26 26 24 21 20 19 17 16 15 15 15 15 15 14 14 13 12 11 11 12 11 11 11 12 13 13 11 10 11 13 13 13 13 13 13 12 11 11 11 11 11 11 11 11 11 10
18 21 22 20 28 36 37 37 37 37 38 38 39 39 39 38 38 37 36 34 32 30 29 27 26 28 32 34 33 31 30 29 28 27 26 25 25 25 25 26 25 22 21 20 18 17 16 15 15 15 14 14 13 13 12 12 11 12 12 11 11 11 12 12 11 10 10 11 11 12 13 14 13 12 12 11 11 11 11 11 11 11 11 11 10
19 21 21 22 31 37 36 36 36 36 36 37 37 38 38 37 37 36 35 33 30 28 27 25 25 29 32 33 32 31 30 29 29 28 26 25 25 26 26 25 23 22 21 20 18 17 15 15 14 14 13 12 12 11 11 11 11 12 11 11 11 11 12 11 10 10 10 11 11 11 12 13 13 12 11 10 10 10 10 10 10 10 10 10 10
20 21 21 24 31 36 36 36 36 35 36 36 36 37 37 36 36 35 34 32 29 26 25 25 26 28 31 32 31 30 30 30 29 28 26 26 25 26 26 24 23 22 21 19 17 16 15 15 14 13 12 11 10 10 10 10 10 10 10 10 10 11 12 11 10 9 10 10 10 11 12 12 12 11 10 10 10 10 10 10 9 9 9 9 9
20 21 22 25 29 32 35 36 36 35 36 35 35 35 34 33 32 31 31 30 28 26 25 26 27 28 30 30 30 30 30 30 29 28 27 26 26 26 26 24 23 21 19 18 17 16 15 14 13 12 11 10 9 9 9 9 9 9 9 8 8 10 11 10 9 9 10 10 10 10 11 11 10 10 10 9 9 9 9 9 9 8 8 8 8
19 22 23 26 28 29 32 35 35 34 34 34 34 33 32 31 30 28 29 29 28 27 26 27 29 29 30 29 29 30 30 30 29 28 27 26 27 26 25 24 22 20 18 17 17 16 15 14 12 11 9 8 7 7 7 7 8 7 7 7 7 9 9 8 9 9 9 9 9 9 10 9 9 9 9 8 8 8 8 8 7 7 8 9 9
19 22 24 27 29 29 30 33 34 33 33 33 33 31 30 31 30 29 29 29 29 29 28 28 29 31 31 29 29 30 30 30 30 28 27 27 26 26 25 23 21 19 18 17 16 15 14 13 11 10 8 7 6 6 6 6 6 6 6 5 7 9 9 8 8 9 8 8 8 8 9 7 8 8 8 7 7 8 7 7 7 8 10 10 10
20 22 24 28 30 30 29 30 32 32 32 32 32 31 29 30 30 30 29 29 29 29 30 30 30 31 31 30 29 28 29 30 29 29 27 26 26 25 24 22 20 19 17 16 15 14 13 12 10 9 8 7 6 6 6 6 6 6 5 4 5 7 10 7 7 9 8 7 7 7 8 6 7 7 8 8 8 8 7 8 9 10 10 10 10
21 23 25 28 30 30 29 29 31 31 30 30 30 31 31 31 30 29 29 29 29 30 31 31 30 30 30 30 29 28 28 28 29 28 27 26 25 24 23 21 19 18 17 15 14 13 12 11 10 9 8 7 6 6 6 6 6 5 4 3 4 5 7 6 6 8 8 6 6 7 6 5 6 7 8 9 9 8 8 9 9 10 11 11 11
24 25 27 30 31 31 29 29 30 29 28 27 27 29 32 32 30 30 30 30 30 29 30 31 31 30 29 29 28 28 28 28 28 28 27 25 24 23 22 20 19 17 16 15 14 13 12 11 9 9 8 7 7 6 5 5 5 4 3 2 3 4 5 4 5 7 6 5 6 7 5 5 7 8 8 8 8 7 8 8 9 10 12 12 12
23 25 27 30 31 30 30 30 28 28 27 26 25 26 30 32 32 31 30 30 28 28 29 30 29 28 28 28 28 28 26 27 28 27 26 24 23 22 21 20 19 17 16 14 13 12 11 10 8 8 7 7 7 6 4 4 3 2 2 2 3 3 3 3 5 6 5 6 6 5 4 5 7 8 8 8 8 7 8 8 9 11 13 13 12
19 21 23 26 29 30 29 29 28 28 27 26 26 26 28 31 32 32 30 29 27 27 27 28 28 27 27 27 27 26 25 25 24 25 25 23 22 21 21 21 19 17 16 14 12 11 10 8 7 7 6 7 7 5 3 2 2 1 0 1 2 2 3 3 4 5 5 6 6 4 4 7 7 8 8 8 7 7 7 7 9 12 13 14 13
12 10 15 16 20 27 29 28 28 29 27 25 25 26 29 29 29 30 29 29 28 27 27 27 27 25 25 24 23 21 21 22 21 23 24 22 22 21 21 21 19 17 15 13 12 10 9 7 7 6 6 6 6 3 1 1 2 3 3 2 1 2 3 3 2 4 4 6 5 3 5 8 7 7 7 7 7 6 7 8 10 12 13 13 13
17 17 19 14 13 18 24 27 27 27 26 23 23 25 28 27 27 27 26 28 28 28 28 27 26 24 23 20 18 17 17 18 19 21 21 21 22 21 21 20 18 16 15 13 11 9 8 7 6 5 6 5 3 1 1 0 3 4 5 3 1 2 3 4 3 4 4 6 4 3 6 8 8 7 6 7 7 6 8 9 10 12 12 12 14
23 26 26 21 18 12 13 22 25 24 23 22 22 25 27 25 25 25 24 26 25 25 25 24 25 24 20 18 17 17 16 16 19 21 21 22 22 22 21 20 18 16 14 12 10 9 7 6 5 5 4 2 1 1 1 1 2 3 2 1 1 1 3 4 4 4 5 6 4 4 7 7 8 8 7 8 6 6 8 9 9 12 12 13 13
15 19 22 24 25 15 9 15 19 21 20 20 22 24 24 23 23 23 24 25 23 22 22 22 24 23 20 18 19 19 16 15 19 21 20 19 19 20 19 17 16 14 14 10 9 8 6 5 4 4 3 1 1 1 2 2 2 2 1 1 1 1 4 5 5 5 6 6 5 5 7 7 8 8 7 7 6 7 8 9 9 11 12 13 12
8 13 21 22 24 22 16 13 12 16 18 19 21 22 23 23 23 23 24 24 22 21 21 21 22 23 21 19 21 22 18 16 20 19 17 17 17 17 16 15 14 13 13 10 9 8 7 6 4 3 3 2 1 1 1 2 3 2 2 2 1 3 5 6 6 6 7 6 5 6 7 7 8 8 7 7 6 7 8 8 9 10 12 13 11
9 12 19 20 23 27 23 17 11 11 16 18 19 20 22 23 22 23 23 22 21 20 20 20 20 21 19 20 24 23 19 18 19 17 16 17 17 16 15 15 14 13 13 11 9 8 7 5 4 3 3 2 1 1 1 2 3 3 4 3 2 5 6 7 6 7 8 7 7 6 6 7 7 7 6 7 6 7 7 7 9 10 11 13 11
11 14 17 19 26 29 25 21 14 10 13 16 18 19 20 22 22 22 23 22 22 20 20 19 19 19 18 19 22 21 18 18 20 19 17 16 16 16 14 14 14 13 12 11 10 9 7 5 4 3 3 2 2 1 1 2 2 4 4 4 5 7 8 8 7 8 8 8 9 7 6 6 6 6 6 7 7 7 8 7 8 9 12 13 11
9 16 21 23 27 30 28 24 18 14 12 12 16 18 19 20 21 22 22 22 21 19 19 19 18 18 17 18 19 18 18 18 19 19 18 17 15 14 14 14 13 12 12 11 10 9 7 6 5 4 3 2 2 1 1 2 3 3 4 5 7 7 8 8 7 8 9 9 10 8 6 7 6 5 6 7 7 8 8 7 8 9 12 12 10
8 13 20 25 27 29 29 25 22 20 16 13 13 15 19 20 20 21 21 21 20 19 19 19 18 18 17 17 18 17 17 17 18 18 18 18 15 14 14 13 13 12 12 11 10 9 8 6 5 4 3 2 2 2 1 1 3 4 5 6 7 7 8 8 7 8 10 9 9 7 6 6 6 5 5 6 7 9 9 7 7 8 12 11 9
9 9 10 19 28 29 26 23 23 22 21 18 14 12 15 19 19 19 19 20 20 19 19 18 18 18 17 18 18 18 17 16 17 17 17 18 17 16 15 13 13 12 12 11 10 9 8 6 5 4 3 1 1 1 1 1 3 4 5 6 6 7 7 7 6 7 10 9 9 8 6 5 6 5 5 5 7 9 8 7 7 8 11 11 8
7 6 6 13 23 27 25 23 23 21 22 22 18 15 14 16 19 19 18 19 19 19 18 18 18 17 17 18 18 19 17 16 19 18 15 17 18 17 16 14 14 13 13 10 10 10 9 7 7 6 4 1 1 1 1 1 2 3 4 5 6 6 6 6 6 7 8 10 9 8 6 5 5 5 4 4 6 9 8 7 7 8 11 10 8
4 4 7 11 17 23 24 23 23 22 21 20 21 19 16 16 17 18 18 18 19 19 18 18 18 17 17 17 18 18 17 16 22 23 18 14 15 17 16 16 14 13 15 14 13 12 10 9 8 7 5 3 3 2 2 2 2 2 3 4 5 5 5 5 6 6 6 9 9 8 8 6 5 5 4 4 6 9 9 8 7 8 10 10 8
4 3 7 12 16 22 24 22 23 22 21 21 20 20 20 20 19 18 19 19 18 18 18 18 18 18 18 18 17 18 17 15 19 24 22 15 12 14 15 16 15 15 19 20 17 13 10 10 9 8 6 5 5 4 3 3 2 2 3 3 4 4 4 5 5 5 5 7 8 6 7 8 6 6 5 4 5 8 9 8 8 8 9 9 8
5 2 5 11 14 18 22 22 23 24 23 23 23 22 23 23 23 19 19 20 18 17 17 17 17 18 18 19 19 18 17 15 16 19 19 15 12 12 13 14 15 18 20 20 18 13 11 11 10 9 8 7 6 4 3 3 2 1 2 1 3 3 3 5 5 5 5 6 6 5 7 9 8 7 7 5 5 8 9 9 9 9 8 8 8
5 3 0 7 11 11 15 16 18 23 23 22 24 24 23 23 23 21 19 21 19 16 16 16 17 17 18 19 20 19 18 16 16 16 15 15 14 13 12 12 13 16 17 19 19 14 13 12 11 10 9 8 8 6 4 3 2 1 2 1 2 2 3 5 4 4 4 4 5 5 6 9 8 8 7 6 6 8 9 10 9 10 8 7 7
6 4 2 2 6 5 7 8 11 17 19 19 20 21 21 21 21 22 21 19 18 16 15 15 15 16 17 18 19 20 18 16 16 17 16 14 15 15 13 14 15 14 14 18 19 15 14 13 11 10 9 9 8 7 6 4 3 2 2 1 1 2 3 5 4 4 4 4 4 3 4 6 7 7 7 6 6 7 9 9 9 12 11 7 6
11 7 5 4 3 4 3 5 8 12 14 16 17 17 18 20 22 24 22 18 17 15 14 14 15 16 17 17 19 20 19 18 16 17 19 17 15 15 15 17 20 15 12 15 17 15 15 15 12 11 10 9 8 7 6 5 4 3 2 2 1 3 4 5 5 3 3 4 4 4 3 5 5 6 7 6 6 8 8 8 9 12 12 8 7
16 11 7 7 8 7 2 4 8 11 12 14 16 16 18 21 24 24 21 18 18 16 15 14 15 16 17 17 18 20 19 19 17 16 18 19 18 17 17 18 20 17 12 13 15 15 16 16 14 12 11 10 8 7 6 5 4 3 3 3 2 4 5 5 5 4 3 4 5 4 4 4 5 6 7 6 6 8 8 9 10 11 12 11 9
18 16 11 8 11 13 6 4 8 10 12 15 16 18 20 23 25 25 22 21 19 17 16 15 15 16 18 18 18 20 19 19 19 17 16 18 18 18 19 18 18 18 14 14 15 14 16 19 16 14 13 10 9 8 7 6 5 4 4 4 3 4 5 5 5 5 4 4 4 4 4 4 4 5 6 6 6 8 9 9 11 11 11 12 11
19 19 16 10 14 18 14 7 8 10 14 17 19 22 25 27 27 25 23 21 18 16 16 17 16 17 18 19 19 19 19 19 20 19 18 17 16 17 19 19 18 19 17 15 15 12 14 19 17 15 14 12 10 10 9 8 6 5 4 4 4 4 5 5 5 5 4 3 3 4 4 4 4 4 5 7 7 7 8 9 11 11 11 11 10
17 17 18 15 14 19 18 13 9 10 14 18 22 24 27 28 25 21 19 17 16 16 16 17 18 18 18 19 19 20 20 20 20 20 19 18 16 15 19 21 20 20 19 16 14 12 12 16 17 15 14 13 11 11 12 10 7 7 5 5 5 5 4 5 5 5 4 3 3 5 5 5 5 5 5 6 7 7 7 9 10 10 11 11 10
15 14 15 16 14 14 18 17 13 11 14 17 19 21 22 24 21 17 15 14 14 15 15 16 17 19 19 19 19 20 21 21 21 20 19 19 17 15 17 21 21 22 23 18 14 14 13 14 17 16 14 13 11 12 13 12 9 7 6 4 4 4 4 5 5 4 4 3 4 5 5 5 7 6 5 5 7 7 7 9 9 9 10 11 11
13 14 14 14 13 13 14 17 16 15 16 15 17 20 20 20 20 17 15 13 13 13 14 16 17 19 20 20 20 20 21 22 21 20 19 18 19 17 15 19 21 21 25 22 16 16 16 15 17 16 16 15 12 11 13 12 10 8 6 4 4 4 4 5 6 6 5 4 4 5 6 6 6 6 6 5 6 7 8 9 10 10 10 11 12
12 13 13 12 12 13 13 14 15 15 17 16 16 18 20 21 20 16 15 15 14 14 16 17 18 19 20 21 21 21 21 21 22 22 21 19 19 20 17 18 21 19 21 23 19 17 17 17 17 17 17 17 14 12 12 12 12 10 8 4 3 4 3 4 5 6 6 5 4 5 6 7 7 7 7 6 6 7 8 10 11 10 10 10 11
11 12 12 12 12 12 13 13 14 13 15 17 17 16 18 21 21 18 16 17 17 16 18 18 19 20 20 20 20 21 21 21 22 22 22 22 20 21 20 19 21 19 17 21 20 18 17 18 19 18 18 18 16 14 13 13 12 12 10 7 4 4 2 4 3 3 5 5 5 6 7 7 8 8 7 7 8 9 8 9 10 10 10 10 10
10 11 11 11 11 11 11 12 12 12 13 14 17 16 16 20 24 24 21 20 19 18 18 18 18 18 18 19 19 20 21 22 23 23 23 24 22 22 21 19 20 19 16 18 21 21 18 17 18 18 18 18 17 16 15 15 12 11 11 10 7 4 3 4 3 2 3 4 6 6 7 8 8 8 8 8 9 10 10 9 10 10 9 10 12
11 11 11 11 11 11 10 10 10 11 11 12 14 16 14 17 24 26 23 22 22 19 19 19 18 17 17 18 19 20 21 22 23 24 24 24 24 23 22 21 20 18 16 17 20 21 20 17 16 16 17 17 18 16 16 17 14 12 12 10 9 7 6 6 5 5 4 3 5 7 7 8 9 9 10 10 9 10 11 11 10 10 9 11 13
12 11 12 12 11 11 11 10 10 10 10 11 14 15 15 15 19 23 22 21 23 22 20 19 18 18 17 18 19 19 20 21 21 23 24 24 25 25 23 22 21 19 18 17 18 19 21 20 17 16 16 16 17 16 15 17 16 14 14 12 10 9 9 8 6 7 6 5 4 5 7 8 9 10 11 10 10 10 10 11 11 11 10 11 13
12 12 12 12 12 12 12 11 11 10 10 11 12 14 16 16 17 21 22 20 24 24 22 20 18 18 19 18 19 19 19 19 20 21 23 23 25 26 25 23 23 21 19 18 17 18 20 21 20 18 17 15 16 17 15 16 17 16 15 14 12 11 10 8 7 8 8 7 6 3 7 9 8 10 12 12 11 11 11 11 11 12 11 11 12
13 12 12 12 13 13 12 12 11 11 11 10 11 12 14 16 18 21 24 24 26 26 25 23 19 17 19 19 19 20 20 20 20 21 23 24 23 25 26 24 22 22 21 19 18 18 18 20 20 19 19 17 16 16 16 15 16 16 16 15 14 13 11 9 9 9 8 7 7 5 6 8 7 8 11 12 12 12 12 12 12 13 12 12 12
Wind_Direction
162 163 162 171 171 170 172 168 168 168 170 171 171 170 168 166 164 161 159 159 158 157 153 151 150 148 146 145 145 144 143 143 143 142 141 141 140 138 135 132 130 129 127 126 122 117 113 114 112 109 110 110 106 102 99 97 96 96 96 94 91 89 87 87 89 90 89 89 84 80 79 78 76 75 76 77 79 81 84 80 68 70 73 72 69
159 163 162 170 171 172 173 170 170 170 172 171 171 170 168 165 162 161 159 160 159 157 154 152 150 148 147 146 146 145 145 146 145 144 144 143 143 141 138 135 130 128 128 128 123 118 116 115 113 113 112 107 104 102 102 101 99 96 95 95 93 91 89 90 90 90 92 90 84 81 79 76 76 74 72 71 71 74 83 79 73 72 71 72 70
155 162 161 170 171 172 173 172 172 172 174 172 172 169 167 164 162 161 160 160 158 156 155 153 151 149 148 147 146 145 146 147 147 146 147 146 146 144 139 133 128 129 130 128 122 118 116 115 115 113 109 104 104 103 102 102 100 98 97 97 97 95 95 96 93 95 93 87 81 77 76 73 74 74 71 69 67 67 72 72 72 70 68 71 71
154 159 162 169 171 172 174 173 173 173 174 172 171 168 165 163 162 161 161 160 157 157 155 153 151 150 149 148 147 146 147 147 148 148 148 148 147 143 136 131 131 134 132 127 122 119 117 115 114 111 107 104 103 102 101 101 100 99 99 99 98 98 96 94 93 96 91 86 83 79 78 76 73 72 70 68 66 65 65 65 66 66 66 68 68
154 157 161 167 170 172 174 173 174 174 173 170 168 166 164 162 162 161 160 159 157 157 155 154 152 151 150 150 148 146 147 148 149 149 150 150 146 140 135 135 136 135 131 127 123 120 118 115 113 111 108 105 103 101 100 98 98 97 98 97 97 96 92 91 91 91 85 82 83 82 81 81 77 71 69 67 64 64 63 63 63 64 65 66 67
156 156 160 163 167 171 173 173 173 174 173 169 167 165 163 163 162 160 159 158 158 157 156 155 153 152 151 151 150 147 147 149 150 150 151 149 144 140 138 138 137 133 131 128 123 121 119 117 115 114 111 107 105 102 100 97 95 94 94 96 96 95 92 92 91 86 79 75 77 79 77 80 80 72 67 66 63 62 61 62 63 62 62 62 64
156 157 160 162 164 170 172 171 172 173 173 171 168 166 165 164 162 161 160 159 159 158 157 156 154 153 152 152 151 149 149 150 150 151 151 147 144 142 140 139 135 134 132 128 124 122 120 118 117 116 114 111 109 106 103 99 95 93 91 93 95 95 93 91 88 82 75 72 76 77 76 76 80 75 68 64 60 59 57 57 61 61 57 56 59
159 159 162 162 164 170 171 170 171 172 172 172 170 168 165 164 162 162 161 160 160 159 159 157 155 154 153 153 152 151 150 150 150 150 149 147 146 143 141 138 136 135 132 129 126 125 120 117 116 116 117 115 113 111 108 102 98 93 90 89 91 93 92 90 84 77 73 73 74 73 74 74 78 76 68 64 58 55 52 50 56 60 54 50 54
163 162 164 163 165 170 170 169 171 172 173 172 170 168 165 164 162 161 161 160 160 160 160 159 156 154 153 153 153 153 152 151 150 150 149 149 146 142 141 138 137 135 132 130 128 127 123 120 119 120 120 117 116 115 110 106 102 96 91 88 86 87 88 87 81 73 72 73 72 70 70 72 75 74 67 62 57 53 52 50 55 57 54 49 49
165 163 166 163 167 170 169 170 170 171 172 172 170 168 165 163 162 161 161 160 161 161 161 159 155 153 154 154 154 155 153 151 150 150 150 149 145 142 141 139 137 135 134 132 131 130 128 125 123 122 120 118 118 116 112 109 106 100 93 89 86 85 86 85 80 74 74 74 74 73 70 70 72 70 64 61 57 53 54 53 55 54 51 49 46
165 164 167 163 168 169 168 169 168 170 172 171 169 166 163 161 161 161 160 161 163 163 160 156 154 154 154 154 155 155 154 152 151 151 151 148 144 143 142 141 139 137 138 136 135 135 131 128 123 121 119 118 118 116 114 112 108 102 96 93 89 86 87 86 80 77 76 75 76 74 71 71 71 68 62 59 57 56 57 55 55 53 48 46 46
166 165 166 164 170 170 167 168 166 168 169 167 164 162 161 160 161 162 163 164 165 163 158 155 154 155 155 156 156 155 154 153 152 152 150 148 146 144 144 143 142 142 142 141 140 136 132 128 123 120 119 120 120 119 115 113 109 104 100 96 91 88 91 86 79 79 76 75 74 73 71 70 69 67 62 59 59 59 59 57 55 52 48 48 47
168 166 164 162 168 169 166 166 165 165 165 163 161 161 163 163 164 164 165 166 165 162 158 155 154 156 157 157 156 156 156 154 152 152 150 148 147 145 145 146 144 145 145 144 141 135 132 129 125 121 121 123 124 122 116 113 111 108 104 98 92 89 92 84 77 80 77 75 73 72 72 70 69 66 64 62 61 60 58 56 54 52 50 49 48
171 164 162 159 163 165 165 164 163 164 164 163 163 163 164 165 165 164 165 166 164 161 159 157 156 157 157 157 157 157 156 154 153 153 151 149 147 145 146 147 147 147 146 143 138 135 134 130 126 123 123 126 127 122 116 113 110 110 107 104 94 89 92 84 77 79 75 76 74 71 73 72 70 66 65 65 63 61 58 57 54 50 46 42 39
176 165 161 160 160 162 163 162 162 164 164 164 164 165 165 165 165 165 165 165 164 162 161 160 159 158 157 158 159 158 156 154 154 154 153 150 148 145 146 147 148 148 145 141 138 137 135 130 126 125 126 127 127 122 116 112 108 108 108 107 97 92 99 88 77 81 75 75 75 72 75 73 69 68 65 64 66 62 57 56 51 44 41 37 34
175 167 163 161 159 161 164 163 163 165 165 164 164 165 166 166 167 167 168 168 168 164 162 161 160 159 159 160 160 159 157 156 155 155 155 152 148 146 147 148 147 146 143 141 141 139 135 130 128 128 129 129 128 122 117 113 107 106 108 111 104 98 102 94 79 84 76 75 80 77 80 73 67 70 62 60 68 64 54 47 44 45 44 38 34
168 168 165 161 157 161 164 163 165 166 166 166 165 166 166 166 166 167 168 168 167 164 162 163 162 161 161 161 161 159 158 157 156 157 157 154 151 149 148 149 147 146 145 144 143 141 136 131 131 131 131 131 127 122 116 109 102 100 108 116 117 102 99 99 82 80 76 79 85 80 85 81 70 67 61 69 77 69 52 44 48 49 42 35 32
164 168 165 160 158 161 161 163 167 167 167 167 166 167 168 167 167 166 167 166 165 163 163 165 164 162 161 161 162 161 160 159 158 159 159 158 155 152 151 151 149 148 146 145 144 140 134 131 134 135 134 130 125 120 108 98 91 91 104 122 134 106 96 108 87 77 82 88 87 82 85 86 78 69 69 78 80 69 55 54 57 48 36 36 36
168 170 166 162 159 159 159 160 165 166 165 166 165 167 169 168 167 165 165 167 166 165 164 165 164 163 162 161 162 162 161 160 160 161 162 161 159 156 154 153 152 150 149 147 146 141 135 136 138 137 134 128 123 119 105 94 89 86 96 131 146 110 103 120 91 80 88 86 82 83 86 92 85 76 77 83 80 70 59 60 58 44 36 39 41
171 170 167 164 159 157 157 156 160 165 163 163 164 165 169 169 168 166 165 167 166 166 165 165 163 162 162 162 163 162 162 163 163 164 165 163 161 160 157 156 155 153 152 150 148 144 140 140 139 136 132 128 124 121 118 103 82 67 88 162 154 125 139 133 89 82 82 83 87 85 94 102 94 85 86 88 83 70 61 57 53 45 37 40 50
169 168 167 162 159 157 155 154 159 164 162 162 163 164 169 167 166 167 166 166 165 166 165 164 163 163 164 164 163 161 162 164 163 165 166 165 165 164 159 158 158 156 155 154 152 148 145 143 136 133 131 133 127 123 121 82 49 26 352 213 164 160 170 136 89 85 79 88 94 90 110 110 102 96 95 95 83 68 60 51 53 51 38 42 59
153 163 170 163 160 157 153 153 158 161 160 161 161 165 170 166 163 163 164 165 167 169 168 165 162 163 164 162 159 159 162 162 164 168 167 168 170 167 163 161 162 161 159 157 158 153 149 142 132 133 137 137 124 121 123 25 346 329 327 317 187 203 169 140 101 91 86 92 97 103 117 114 109 104 99 97 85 66 58 54 62 55 40 48 65
149 155 165 168 161 156 153 152 156 158 157 158 159 165 168 165 162 160 161 165 167 169 167 165 163 162 162 161 161 162 164 163 166 168 168 170 172 171 168 167 166 165 164 163 163 159 152 144 135 135 136 135 126 143 175 31 325 325 326 321 237 229 148 145 127 99 93 98 112 126 119 118 117 112 103 98 85 66 62 69 70 51 46 62 69
159 157 155 157 152 152 160 151 153 155 155 158 158 162 165 163 161 160 161 162 164 165 163 163 164 163 162 165 168 167 165 164 166 169 171 172 174 176 174 172 171 171 168 166 168 165 156 151 144 136 131 135 148 145 39 15 333 337 326 315 279 227 141 142 124 107 102 109 130 130 121 124 122 119 111 103 90 70 71 80 71 48 55 72 71
159 153 140 145 146 147 162 149 149 153 154 159 160 162 163 161 162 165 164 162 164 163 160 162 164 166 169 169 170 170 167 165 170 173 172 170 174 178 178 176 175 177 172 166 173 171 166 169 164 155 153 156 132 67 0 346 350 4 358 343 336 151 136 126 119 111 104 120 145 135 128 131 128 125 118 112 98 81 79 78 67 51 62 77 75
130 130 132 140 141 140 147 152 159 157 156 163 163 163 163 163 167 171 168 166 168 167 165 166 167 170 172 172 173 173 169 168 171 176 177 173 175 178 180 181 178 180 176 172 174 171 174 178 173 167 163 164 128 57 0 347 348 0 9 358 16 127 116 113 120 113 104 117 141 142 138 141 140 134 126 119 105 93 85 74 64 56 68 79 77
111 114 132 140 138 139 145 156 178 175 165 168 166 164 165 166 171 173 170 170 172 172 172 170 170 172 172 175 178 174 171 171 170 178 185 180 179 180 182 183 182 181 178 178 176 172 177 177 172 170 167 171 160 105 21 2 356 -0 10 15 81 114 105 105 112 114 115 122 137 154 151 151 152 138 125 117 108 104 95 76 66 63 75 82 77
130 138 145 149 146 144 148 159 175 192 183 176 170 168 169 171 172 173 172 174 175 175 176 173 172 173 175 176 177 175 174 174 172 177 185 185 185 183 182 183 184 183 180 180 178 176 177 176 172 169 173 180 161 128 20 19 23 12 20 51 95 106 99 99 106 113 122 124 136 163 164 156 160 138 121 114 110 112 102 79 68 70 82 86 84
153 161 156 156 152 148 154 164 171 185 203 199 181 174 174 176 175 174 175 175 177 178 177 174 172 176 179 177 176 176 179 179 179 180 182 187 191 187 185 184 184 185 182 183 180 177 176 177 177 174 177 180 159 110 33 26 45 33 45 77 94 98 95 99 105 108 115 123 137 165 173 162 166 142 115 109 116 119 108 88 73 78 90 91 92
187 178 160 156 155 151 157 168 178 184 197 205 199 187 180 181 181 178 177 177 180 179 177 175 174 178 181 181 179 178 180 181 182 183 182 184 189 192 189 185 185 184 182 184 181 175 174 177 177 177 178 175 155 88 37 39 68 60 70 86 93 91 92 98 102 107 116 128 137 157 175 173 170 145 108 103 118 122 115 99 80 85 98 94 94
178 176 163 161 160 156 156 168 180 182 184 189 206 215 194 186 186 184 181 181 181 178 177 177 177 180 182 184 184 183 183 181 181 184 185 185 188 194 194 192 190 188 186 184 181 176 171 175 176 173 165 155 168 113 71 62 72 72 81 90 90 86 89 95 98 104 116 128 133 145 167 183 175 149 105 104 124 127 123 108 89 92 103 101 99
155 165 168 172 167 156 154 168 176 178 183 186 196 218 222 204 192 188 187 184 182 180 180 181 181 182 184 186 187 189 186 184 185 183 184 187 189 193 196 198 196 194 192 185 183 181 173 180 190 183 166 147 186 155 124 97 69 63 75 86 86 84 87 94 99 102 114 123 126 138 156 173 177 166 118 102 128 135 132 117 100 99 106 110 105
119 172 177 182 175 155 155 173 180 182 188 190 193 204 222 225 208 194 189 187 184 183 185 185 185 184 184 187 190 192 190 189 191 190 187 184 190 192 195 199 199 198 198 195 194 190 182 185 194 186 169 172 191 186 171 154 118 83 66 79 85 87 89 92 101 105 116 120 120 137 150 150 159 165 140 110 129 140 138 126 114 104 101 112 111
74 159 184 190 182 160 161 177 183 187 192 196 199 204 215 230 231 208 188 188 187 187 189 188 187 187 186 187 191 195 194 191 193 196 193 186 189 193 195 197 197 203 206 206 203 197 190 183 185 180 168 185 195 192 186 180 170 105 75 76 87 90 90 95 107 109 118 123 121 138 147 137 135 143 142 137 141 147 147 137 127 112 97 109 119
61 93 197 203 197 171 167 177 184 191 197 199 201 208 214 229 243 228 197 188 187 188 190 190 192 191 190 190 192 195 196 194 193 196 195 192 195 196 199 196 197 206 207 208 204 196 194 187 185 182 171 187 194 187 178 171 193 103 74 69 96 102 98 102 114 114 120 131 127 139 147 136 134 137 139 147 151 153 153 145 134 125 112 113 118
94 95 206 217 216 188 169 178 189 193 199 201 205 213 216 226 240 237 215 195 185 187 188 192 196 195 195 193 193 195 196 195 193 194 193 195 201 203 203 197 198 203 203 207 203 193 193 190 186 185 176 187 192 186 181 166 172 128 91 86 104 129 120 113 125 120 122 133 127 135 140 134 142 143 138 146 151 152 154 149 139 133 134 128 119
78 90 39 271 249 235 178 184 206 204 203 206 211 216 217 224 231 233 228 208 191 189 188 191 197 199 200 197 196 198 197 195 193 193 192 194 201 206 206 205 203 199 201 206 202 194 192 188 186 186 179 188 195 187 183 176 169 152 122 91 109 144 134 124 131 129 131 136 127 125 125 134 147 142 134 141 147 150 153 154 149 140 141 140 129
25 33 21 14 338 294 209 184 227 229 220 217 219 221 222 228 230 230 228 214 201 197 191 191 198 202 204 202 199 200 201 199 197 196 198 197 199 204 206 212 210 201 202 206 202 196 191 188 187 183 180 187 196 190 184 179 169 156 124 85 96 141 142 136 136 140 141 137 131 126 123 134 137 129 136 148 151 155 156 160 159 148 146 146 135
8 8 0 9 11 346 281 207 234 237 232 224 222 227 233 234 230 228 224 213 205 199 195 196 199 202 206 206 203 203 203 202 201 200 203 205 205 208 210 216 213 203 204 207 204 197 188 187 185 181 180 180 184 185 181 174 165 152 122 95 103 134 142 139 139 149 144 132 133 133 132 135 133 134 146 156 159 161 161 164 165 156 151 150 147
8 2 348 331 341 352 354 263 253 242 232 226 222 224 230 232 228 225 220 215 207 198 197 200 201 203 206 207 205 205 205 205 206 205 206 208 208 212 216 218 213 204 203 205 207 200 191 189 184 184 181 173 179 185 181 178 165 149 127 112 117 133 143 143 142 150 152 144 141 139 140 144 147 146 151 158 164 171 172 170 168 163 155 153 161
11 6 359 332 309 330 352 335 280 255 231 219 217 217 218 222 223 222 220 218 212 204 203 204 205 207 206 208 207 206 207 207 208 209 209 207 204 209 215 214 208 205 203 203 208 205 197 192 183 181 181 176 182 184 178 176 175 176 162 141 140 141 145 147 145 151 158 157 153 148 145 154 159 152 160 166 169 178 180 176 174 169 159 156 166
7 7 5 356 316 310 331 336 302 267 243 222 214 215 217 219 220 222 222 219 214 213 213 211 212 213 209 208 210 209 208 208 209 211 213 210 206 205 211 211 205 205 206 204 204 203 198 193 183 177 181 184 183 180 177 181 200 209 195 170 161 157 154 152 148 152 163 168 163 158 150 159 168 166 173 172 171 177 181 181 178 173 166 162 165
359 4 1 360 346 319 318 320 307 278 262 247 231 225 224 225 226 226 225 220 216 216 216 217 217 217 214 211 212 212 210 211 211 213 214 214 214 211 213 213 206 207 211 208 203 202 197 194 191 181 179 183 182 178 181 195 214 204 195 204 186 176 177 168 158 149 159 176 180 172 163 166 172 176 183 176 174 177 183 183 176 178 177 168 166
353 359 356 352 351 340 326 317 309 287 271 269 258 247 239 235 236 236 232 227 222 219 216 218 219 218 218 216 215 214 213 213 213 214 216 216 218 218 218 216 208 206 210 210 207 204 200 199 200 190 178 177 177 176 183 199 206 193 199 211 190 211 215 174 156 140 145 171 190 184 172 170 177 183 188 186 181 179 182 180 176 182 181 171 172
350 349 348 344 337 335 333 325 317 297 275 268 268 260 248 242 243 240 237 231 223 220 219 217 217 216 216 217 216 215 213 214 214 214 216 216 217 219 220 218 211 204 205 207 209 208 203 202 204 198 187 180 172 168 178 193 198 203 220 212 190 235 222 167 161 151 150 160 175 189 186 176 181 191 193 192 183 179 180 180 182 184 181 178 180
347 341 337 334 329 326 327 327 324 312 286 266 262 264 251 242 241 235 232 229 220 218 221 220 218 216 216 217 217 217 216 215 216 215 216 218 219 220 221 221 215 207 202 204 207 209 205 203 205 203 197 188 173 166 174 185 194 205 218 224 251 285 182 164 192 179 159 153 156 184 198 185 185 195 199 199 189 185 185 183 185 183 181 183 183
338 334 329 324 322 321 321 322 320 316 305 275 260 265 257 240 237 235 233 232 226 220 220 222 222 220 218 219 218 218 218 218 218 217 217 218 220 222 221 222 219 212 206 205 205 207 206 204 205 206 204 195 183 178 174 175 185 198 206 216 233 253 217 197 238 240 181 168 164 179 199 195 194 198 200 204 198 194 192 187 187 184 182 183 182
332 328 324 320 316 314 311 312 312 308 308 294 270 267 265 248 238 236 235 235 234 231 226 224 225 222 219 219 220 219 220 220 219 219 219 218 219 222 221 220 221 216 211 211 208 204 204 204 205 206 206 199 193 189 179 174 180 189 192 200 207 212 221 223 242 257 255 231 178 178 195 201 206 207 204 206 204 202 195 191 194 189 185 184 184
331 325 320 317 312 310 309 305 307 304 302 300 284 270 267 264 247 235 234 235 236 239 238 232 228 226 224 222 221 222 221 220 220 220 220 218 218 221 222 220 220 219 214 215 214 206 203 202 203 204 203 198 194 193 186 181 184 185 183 189 197 204 214 220 226 235 251 260 218 182 177 187 209 214 211 208 204 206 199 192 195 191 189 187 186
329 323 318 315 311 308 306 303 303 302 299 298 292 278 267 268 259 240 233 233 233 238 244 243 235 230 229 227 226 225 222 218 218 220 221 222 221 221 223 222 220 220 217 215 215 211 206 203 202 203 202 197 192 194 194 189 188 186 183 186 192 200 210 214 215 219 232 247 254 232 173 179 205 204 203 208 202 204 200 193 193 192 193 190 189
328 323 318 314 312 308 302 300 299 297 295 291 291 286 267 260 260 249 235 230 230 233 238 241 240 236 231 229 228 227 224 221 217 216 218 221 222 221 222 222 220 220 218 215 215 212 209 207 204 203 205 202 195 195 197 197 194 189 187 190 195 203 210 213 214 216 223 227 237 248 196 196 214 188 187 201 201 202 202 196 196 194 192 191 194